Weather History for Bentonville, AR

Change the Weather History Date:

Tuesday, April 23, 2013

  Actual Average Record
Temperature  
Mean Temperature 48 °F -  
Max Temperature 60 °F 71 °F 88 °F (1958)
Min Temperature 37 °F 45 °F 30 °F (1956)
Degree Days  
Heating Degree Days 16    
Growing Degree Days 0 (Base 50)    
Moisture  
Dew Point 43 °F    
Average Humidity 76    
Maximum Humidity 93    
Minimum Humidity 52    
Precipitation  
Precipitation 0.06 in - - ()
Sea Level Pressure  
Sea Level Pressure 29.95 in    
Wind  
Wind Speed 9 mph (NNE)    
Max Wind Speed 15 mph    
Max Gust Speed 20 mph    
Visibility 8 miles    
Events Thunderstorm    
Averages and records for this station are not official NWS values.
T = Trace of Precipitation, MM = Missing Value Source: NWS Daily Summary

Daily Weather History Graph

Daily Weather History Graph

Search for Another Location

Airport:

Trip Planner

Search our weather history database for the weather conditions in past years. The results will help you decide how hot, cold, wet, or windy it might be!

Date:

Astronomy

Apr. 23, 2013 Rise Set
Actual Time 6:32 AM CDT 7:58 PM CDT
Civil Twilight 6:05 AM CDT 8:25 PM CDT
Nautical Twilight 5:33 AM CDT 8:57 PM CDT
Astronomical Twilight 4:59 AM CDT 9:31 PM CDT
Moon 5:56 PM CDT (4/23) 4:57 AM CDT (4/23)
Length of Visible Light 14h 19m
Length of Day
13h 25m
Waxing Gibbous, 94% of the Moon is Illuminated
Apr 23
Waxing Gibbous
Apr 25
Full
May 2
Last Quarter
May 9
New
May 17
First Quarter

Hourly Weather History & Observations

Time (CDT) Temp. Windchill Dew Point Humidity Pressure Visibility Wind Dir Wind Speed Gust Speed Precip Events Conditions
12:15 AM 59.0 °F - 42.8 °F 55% 29.95 in 10.0 mi East 6.9 mph - N/A   Mostly Cloudy
12:35 AM 59.0 °F - 42.8 °F 55% 29.96 in 10.0 mi ESE 8.1 mph - N/A   Overcast
12:55 AM 60.8 °F - 42.8 °F 52% 29.95 in 10.0 mi ESE 9.2 mph - N/A   Mostly Cloudy
1:15 AM 59.0 °F - 42.8 °F 55% 29.94 in 10.0 mi SE 9.2 mph - N/A   Partly Cloudy
1:35 AM 60.8 °F - 44.6 °F 55% 29.95 in 10.0 mi ESE 5.8 mph - N/A   Scattered Clouds
1:55 AM 59.0 °F - 44.6 °F 59% 29.93 in 10.0 mi SE 10.4 mph - N/A   Partly Cloudy
2:15 AM 59.0 °F - 44.6 °F 59% 29.92 in 10.0 mi SE 10.4 mph - N/A   Scattered Clouds
2:35 AM 59.0 °F - 44.6 °F 59% 29.91 in 10.0 mi SE 9.2 mph - N/A   Scattered Clouds
2:55 AM 59.0 °F - 44.6 °F 59% 29.87 in 10.0 mi ESE 12.7 mph - N/A   Partly Cloudy
3:15 AM 59.0 °F - 44.6 °F 59% 29.87 in 10.0 mi SE 8.1 mph - N/A   Mostly Cloudy
3:35 AM 59.0 °F - 44.6 °F 59% 29.87 in 10.0 mi SE 8.1 mph - N/A   Scattered Clouds
3:55 AM 57.2 °F - 44.6 °F 63% 29.86 in 10.0 mi SE 6.9 mph - N/A   Partly Cloudy
4:15 AM 57.2 °F - 44.6 °F 63% 29.84 in 10.0 mi SE 9.2 mph - N/A   Partly Cloudy
4:35 AM 57.2 °F - 44.6 °F 63% 29.85 in 10.0 mi SSE 8.1 mph - N/A   Mostly Cloudy
4:55 AM 59.0 °F - 44.6 °F 59% 29.81 in 10.0 mi SE 11.5 mph - N/A   Mostly Cloudy
5:15 AM 60.8 °F - 46.4 °F 59% 29.88 in 10.0 mi WSW 9.2 mph - N/A   Overcast
5:35 AM 60.8 °F - 46.4 °F 59% 29.85 in 10.0 mi South 8.1 mph - N/A   Mostly Cloudy
5:55 AM 60.8 °F - 46.4 °F 59% 29.84 in 10.0 mi South 9.2 mph - N/A   Overcast
6:15 AM 60.8 °F - 46.4 °F 59% 29.83 in 10.0 mi South 11.5 mph - N/A   Overcast
6:35 AM 60.8 °F - 46.4 °F 59% 29.83 in 10.0 mi South 13.8 mph 19.6 mph N/A   Overcast
6:55 AM 60.8 °F - 46.4 °F 59% 29.88 in 10.0 mi WNW 11.5 mph - N/A Thunderstorm Overcast
7:15 AM 57.2 °F - 48.2 °F 72% 29.89 in 10.0 mi NNW 11.5 mph - N/A   Overcast
7:35 AM 57.2 °F - 48.2 °F 72% 29.90 in 10.0 mi North 8.1 mph - N/A   Overcast
7:55 AM 55.4 °F - 48.2 °F 77% 29.91 in 10.0 mi North 9.2 mph - N/A   Overcast
8:15 AM 55.4 °F - 50.0 °F 82% 29.90 in 10.0 mi North 4.6 mph - N/A   Overcast
8:35 AM 57.2 °F - 50.0 °F 77% 29.90 in 10.0 mi ENE 4.6 mph - N/A   Mostly Cloudy
8:55 AM 57.2 °F - 50.0 °F 77% 29.91 in 10.0 mi NE 4.6 mph - N/A   Overcast
9:15 AM 57.2 °F - 51.8 °F 82% 29.91 in 10.0 mi ENE 4.6 mph - N/A   Overcast
9:35 AM 57.2 °F - 51.8 °F 82% 29.91 in 10.0 mi ENE 3.5 mph - N/A   Overcast
9:55 AM 57.2 °F - 51.8 °F 82% 29.91 in 10.0 mi NNE 4.6 mph - N/A   Overcast
10:15 AM 57.2 °F - 51.8 °F 82% 29.91 in 10.0 mi NNE 5.8 mph - N/A   Overcast
10:35 AM 59.0 °F - 51.8 °F 77% 29.90 in 10.0 mi ENE 4.6 mph - N/A   Overcast
10:55 AM 59.0 °F - 51.8 °F 77% 29.91 in 10.0 mi NNW 4.6 mph - N/A   Overcast
11:15 AM 59.0 °F - 51.8 °F 77% 29.92 in 10.0 mi NNW 8.1 mph - N/A   Overcast
11:35 AM 57.2 °F - 51.8 °F 82% 29.91 in 10.0 mi North 9.2 mph - N/A   Overcast
11:55 AM 57.2 °F - 51.8 °F 82% 29.92 in 10.0 mi North 6.9 mph - N/A   Overcast
12:15 PM 57.2 °F - 51.8 °F 82% 29.92 in 10.0 mi NNW 5.8 mph - N/A   Overcast
12:35 PM 57.2 °F - 51.8 °F 82% 29.92 in 10.0 mi NNW 8.1 mph - N/A   Overcast
12:55 PM 55.4 °F - 51.8 °F 88% 29.92 in 10.0 mi NNW 11.5 mph - N/A   Overcast
1:15 PM 51.8 °F - 46.4 °F 82% 29.92 in 7.0 mi NNW 9.2 mph - N/A   Overcast
1:35 PM 48.2 °F - 42.8 °F 82% 29.93 in 4.0 mi NNW 10.4 mph - N/A   Overcast
1:55 PM 46.4 °F 40.7 °F 42.8 °F 87% 29.93 in 3.0 mi North 12.7 mph - N/A   Overcast
2:15 PM 46.4 °F 40.4 °F 42.8 °F 87% 29.94 in 2.0 mi North 13.8 mph 18.4 mph 0.01 in   Overcast
2:55 PM 42.8 °F 36.2 °F 39.2 °F 87% 29.95 in 2.0 mi NNW 12.7 mph 17.3 mph 0.02 in   Overcast
3:15 PM 42.8 °F 37.5 °F 39.2 °F 87% 29.95 in 2.0 mi North 9.2 mph 17.3 mph N/A   Overcast
3:35 PM 42.8 °F 36.2 °F 37.4 °F 81% 29.96 in 3.0 mi North 12.7 mph 19.6 mph N/A   Overcast
3:55 PM 41.0 °F 35.8 °F 37.4 °F 87% 29.96 in 1.5 mi NNW 8.1 mph - 0.01 in   Overcast
4:15 PM 41.0 °F 34.3 °F 37.4 °F 87% 29.97 in 2.0 mi North 11.5 mph 17.3 mph 0.01 in   Overcast
4:35 PM 41.0 °F 33.9 °F 37.4 °F 87% 29.97 in 2.5 mi North 12.7 mph 17.3 mph 0.01 in   Overcast
4:55 PM 39.2 °F 30.8 °F 37.4 °F 93% 29.97 in 4.0 mi North 15.0 mph - 0.01 in   Overcast
5:15 PM 39.2 °F 30.8 °F 35.6 °F 87% 29.98 in 3.0 mi North 15.0 mph 18.4 mph 0.01 in   Overcast
5:35 PM 39.2 °F 32.0 °F 35.6 °F 87% 29.99 in 2.5 mi North 11.5 mph 18.4 mph 0.01 in   Overcast
5:55 PM 39.2 °F 31.2 °F 35.6 °F 87% 29.99 in 2.0 mi North 13.8 mph - 0.01 in   Overcast
6:15 PM 39.2 °F 33.0 °F 35.6 °F 87% 30.00 in 3.0 mi NNW 9.2 mph - N/A   Overcast
6:35 PM 39.2 °F 32.5 °F 35.6 °F 87% 30.00 in 3.0 mi North 10.4 mph - 0.01 in   Overcast
6:55 PM 39.2 °F 32.5 °F 35.6 °F 87% 30.01 in 2.0 mi NNW 10.4 mph - 0.01 in   Overcast
7:15 PM 39.2 °F 33.0 °F 35.6 °F 87% 30.02 in 2.5 mi North 9.2 mph - N/A   Overcast
7:35 PM 37.4 °F 30.3 °F 33.8 °F 87% 30.03 in 4.0 mi NNW 10.4 mph - N/A   Overcast
7:55 PM 37.4 °F 30.3 °F 35.6 °F 93% 30.03 in 5.0 mi North 10.4 mph - N/A   Overcast
8:15 PM 37.4 °F 30.3 °F 33.8 °F 87% 30.03 in 10.0 mi North 10.4 mph - N/A   Overcast
8:35 PM 37.4 °F 30.8 °F 33.8 °F 87% 30.05 in 10.0 mi North 9.2 mph - N/A   Overcast
8:55 PM 37.4 °F 29.8 °F 33.8 °F 87% 30.06 in 7.0 mi North 11.5 mph - N/A   Overcast
9:15 PM 37.4 °F 29.3 °F 33.8 °F 87% 30.07 in 8.0 mi North 12.7 mph 18.4 mph N/A   Overcast
9:55 PM 37.4 °F 29.8 °F 33.8 °F 87% 30.09 in 9.0 mi North 11.5 mph - N/A   Overcast
10:15 PM 37.4 °F 29.3 °F 33.8 °F 87% 30.09 in 9.0 mi North 12.7 mph 16.1 mph N/A   Overcast
10:35 PM 37.4 °F 31.4 °F 33.8 °F 87% 30.09 in 9.0 mi North 8.1 mph - N/A   Overcast
10:55 PM 37.4 °F 29.8 °F 33.8 °F 87% 30.10 in 8.0 mi North 11.5 mph - N/A   Overcast
11:15 PM 37.4 °F 28.9 °F 33.8 °F 87% 30.09 in 10.0 mi North 13.8 mph - N/A   Overcast
11:35 PM 37.4 °F 31.4 °F 33.8 °F 87% 30.09 in 10.0 mi North 8.1 mph - N/A   Overcast
11:55 PM 37.4 °F 30.3 °F 32.0 °F 81% 30.11 in 10.0 mi North 10.4 mph - N/A   Overcast